FW2321 Weather Reports


Display with metric or nautical units.
time (UTC)temp
F
wind
direction
speed
MPH
gust
MPH
rain 1hr
in
rain 24hr
in
rain mn
in
humidity
%
barometer
mb
20260504100537 42 0 0.0 4.0 0.00 0.00 0.00 92 1001.6
20260504081548 50 0 0.0 3.0 0.00 0.00 0.00 81 1002.6
20260504081033 50 209 1.0 4.0 0.00 0.00 0.00 81 1002.7
20260504080537 50 0 1.0 4.0 0.00 0.00 0.00 81 1002.8
20260504050533 50 0 0.0 2.0 0.00 0.00 0.00 83 1003.9
20260504045534 51 0 0.0 2.0 0.00 0.00 0.00 82 1004.0
20260504045035 50 0 0.0 2.0 0.00 0.00 0.00 83 1004.0
20260504044542 50 0 0.0 3.0 0.00 0.00 0.00 84 1004.1
20260504044035 49 282 0.0 3.0 0.00 0.00 0.00 86 1004.0
20260504043535 48 318 0.0 3.0 0.00 0.00 0.00 87 1003.9
20260504043044 48 0 0.0 3.0 0.00 0.00 0.00 86 1004.0
20260504042536 48 207 1.0 3.0 0.00 0.00 0.00 88 1004.0
20260504042036 47 0 0.0 2.0 0.00 0.00 0.00 87 1004.1
20260504041540 47 0 0.0 2.0 0.00 0.00 0.00 87 1004.0
20260504041033 47 0 0.0 1.0 0.00 0.00 0.00 86 1004.0
20260504040533 47 0 0.0 0.0 0.00 0.00 0.00 85 1003.9
20260504040043 48 0 0.0 0.0 0.00 0.00 0.00 85 1004.0
20260504035534 48 0 0.0 0.0 0.00 0.00 0.00 85 1004.0
20260504035038 48 0 0.0 0.0 0.00 0.00 0.00 84 1003.9
20260504034545 49 0 0.0 0.0 0.00 0.00 0.00 84 1004.0
20260504034034 49 0 0.0 0.0 0.00 0.00 0.00 83 1004.0
20260504033534 49 0 0.0 0.0 0.00 0.00 0.00 83 1004.1
20260504033044 49 0 0.0 1.0 0.00 0.00 0.00 83 1004.1
20260504032534 50 0 0.0 1.0 0.00 0.00 0.00 83 1004.0
20260504032036 50 0 0.0 1.0 0.00 0.00 0.00 83 1004.1
20260504031543 50 0 0.0 3.0 0.00 0.00 0.00 82 1004.1
20260504031036 50 0 0.0 3.0 0.00 0.00 0.00 82 1004.1
20260504030532 50 205 0.0 3.0 0.00 0.00 0.00 82 1004.0
20260504030041 50 205 0.0 4.0 0.00 0.00 0.00 82 1004.0
20260504025533 50 205 0.0 4.0 0.00 0.00 0.00 82 1004.0
20260504025036 50 205 1.0 4.0 0.00 0.00 0.00 81 1004.1
20260504024541 51 0 0.0 0.0 0.00 0.00 0.00 81 1003.9
20260504024038 51 0 0.0 0.0 0.00 0.00 0.00 79 1003.9
20260504023536 52 0 0.0 0.0 0.00 0.00 0.00 78 1003.9
20260504023049 52 0 0.0 0.0 0.00 0.00 0.00 77 1004.0
20260504022536 53 0 0.0 0.0 0.00 0.00 0.00 76 1003.8
20260504022038 54 0 0.0 0.0 0.00 0.00 0.00 75 1003.8
20260504021546 54 0 0.0 2.0 0.00 0.00 0.00 75 1003.7
20260504021041 54 0 0.0 2.0 0.00 0.00 0.00 74 1003.9
20260504020535 55 205 1.0 2.0 0.00 0.00 0.00 73 1003.8
20260504020125 56 205 1.0 2.0 0.00 0.00 0.00 71 1003.7
20260504015536 57 205 1.0 2.0 0.00 0.00 0.00 69 1003.6
20260504015034 58 0 0.0 2.0 0.00 0.00 0.00 67 1003.5
20260504014601 58 0 0.0 2.0 0.00 0.00 0.00 66 1003.7
20260504014036 59 205 0.0 2.0 0.00 0.00 0.00 65 1003.9
20260504013533 59 0 1.0 2.0 0.00 0.00 0.00 63 1003.8
20260504013053 60 0 0.0 3.0 0.00 0.00 0.00 62 1003.8
20260504012533 60 205 1.0 3.0 0.00 0.00 0.00 61 1003.6
20260504012033 61 206 1.0 4.0 0.00 0.00 0.00 60 1003.6
20260504011540 61 206 1.0 4.0 0.00 0.00 0.00 60 1003.6
20260504011032 62 206 1.0 5.0 0.00 0.00 0.00 59 1003.6
20260504010536 63 206 1.0 5.0 0.00 0.00 0.00 58 1003.6
20260504010048 63 208 1.0 3.0 0.00 0.00 0.00 57 1003.5
20260504005536 63 208 1.0 4.0 0.00 0.00 0.00 57 1003.5
20260504005035 64 208 1.0 4.0 0.00 0.00 0.00 56 1003.5
20260504004616 64 209 1.0 5.0 0.00 0.00 0.00 55 1003.4
20260504004035 64 210 2.0 5.0 0.00 0.00 0.00 55 1003.5
20260504003536 65 215 2.0 5.0 0.00 0.00 0.00 54 1003.5
20260504003049 65 237 2.0 6.0 0.00 0.00 0.00 54 1003.4
20260504002536 66 219 2.0 8.0 0.00 0.00 0.00 53 1003.4
20260504002035 66 254 2.0 8.0 0.00 0.00 0.00 53 1003.4
20260504001618 66 264 3.0 9.0 0.00 0.00 0.00 52 1003.3
20260504001033 66 215 3.0 9.0 0.00 0.00 0.00 51 1003.4
20260504000534 66 265 3.0 9.0 0.00 0.00 0.00 52 1003.5
20260503235536 67 222 4.0 11.0 0.00 0.00 0.00 51 1003.4
20260503235034 67 234 3.0 15.0 0.00 0.00 0.00 52 1003.5
20260503234549 67 209 5.0 15.0 0.00 0.00 0.00 52 1003.4
20260503234036 67 232 6.0 15.0 0.00 0.00 0.00 50 1003.5
20260503233534 67 237 4.0 14.0 0.00 0.00 0.00 51 1003.5
20260503233045 67 224 5.0 14.0 0.00 0.00 0.00 50 1003.4
20260503232534 67 245 4.0 13.0 0.00 0.00 0.00 52 1003.6
20260503232034 67 182 5.0 13.0 0.00 0.00 0.00 52 1003.6
20260503231543 67 218 6.0 15.0 0.00 0.00 0.00 52 1003.6
20260503231034 67 208 4.0 15.0 0.00 0.00 0.00 52 1003.7
20260503230534 67 194 6.0 14.0 0.00 0.00 0.00 51 1003.6
20260503230105 67 210 4.0 13.0 0.00 0.00 0.00 52 1003.6
20260503225532 67 211 4.0 11.0 0.00 0.00 0.00 51 1003.6
20260503225034 67 257 5.0 11.0 0.00 0.00 0.00 52 1003.8
20260503224548 67 202 4.0 11.0 0.00 0.00 0.00 52 1003.7
20260503224036 67 234 4.0 12.0 0.00 0.00 0.00 51 1003.8
20260503223534 67 239 4.0 13.0 0.00 0.00 0.00 52 1003.8
20260503223048 67 225 6.0 15.0 0.00 0.00 0.00 51 1003.8
20260503222534 67 195 5.0 18.0 0.00 0.00 0.00 53 1003.9
20260503222035 67 208 6.0 18.0 0.00 0.00 0.00 52 1004.0
20260503221546 67 223 5.0 16.0 0.00 0.00 0.00 53 1004.0
20260503221034 67 216 7.0 16.0 0.00 0.00 0.00 53 1004.1
20260503220535 67 215 5.0 16.0 0.00 0.00 0.00 55 1003.9
20260503220047 67 213 5.0 21.0 0.00 0.00 0.00 52 1004.0
20260503215535 66 197 9.0 21.0 0.00 0.00 0.00 54 1003.9
20260503215034 66 207 7.0 18.0 0.00 0.00 0.00 53 1004.0
20260503214550 66 234 9.0 18.0 0.00 0.00 0.00 54 1003.9
20260503214038 66 236 8.0 16.0 0.00 0.00 0.00 53 1004.0
20260503213533 66 173 7.0 16.0 0.00 0.00 0.00 53 1004.2
20260503213044 66 218 6.0 20.0 0.00 0.00 0.00 54 1004.3
20260503212533 66 223 7.0 20.0 0.00 0.00 0.00 54 1004.2
20260503212035 66 208 6.0 20.0 0.00 0.00 0.00 54 1004.3
20260503211549 66 242 7.0 24.0 0.00 0.00 0.00 52 1004.3
20260503211038 65 196 9.0 24.0 0.00 0.00 0.00 54 1004.4
20260503210538 65 223 8.0 20.0 0.00 0.00 0.00 54 1004.4
20260503210051 65 213 5.0 21.0 0.00 0.00 0.00 54 1004.7
20260503205538 65 224 9.0 21.0 0.00 0.00 0.00 53 1005.0
20260503205039 65 234 6.0 20.0 0.00 0.00 0.00 53 1004.9
20260503204548 65 259 9.0 20.0 0.00 0.00 0.00 54 1004.9
20260503204034 65 206 6.0 22.0 0.00 0.00 0.00 54 1004.9
20260503203537 65 218 11.0 22.0 0.00 0.00 0.00 52 1005.0
20260503203103 65 275 5.0 21.0 0.00 0.00 0.00 56 1005.1
20260503202538 65 263 4.0 21.0 0.00 0.00 0.00 58 1005.2
20260503202041 64 199 10.0 21.0 0.00 0.00 0.00 57 1005.2
20260503201548 64 238 7.0 18.0 0.00 0.00 0.00 60 1005.3
20260503201038 63 263 10.0 22.0 0.00 0.00 0.00 59 1005.5
20260503200542 63 242 9.0 27.0 0.00 0.00 0.00 62 1005.6
20260503200043 63 215 11.0 27.0 0.00 0.00 0.00 60 1005.8
20260503195536 62 236 10.0 21.0 0.00 0.00 0.00 60 1005.8
20260503195035 62 214 10.0 21.0 0.00 0.00 0.00 63 1006.1
20260503194545 62 226 9.0 23.0 0.00 0.00 0.00 63 1006.2
20260503194038 62 237 14.0 24.0 0.00 0.00 0.00 61 1006.2
20260503193538 62 187 12.0 24.0 0.00 0.00 0.00 60 1006.3
20260503193046 62 201 10.0 23.0 0.00 0.00 0.00 59 1006.4
20260503192537 62 275 10.0 23.0 0.00 0.00 0.00 60 1006.5
20260503192037 62 221 7.0 23.0 0.00 0.00 0.00 59 1006.5
20260503191549 62 209 10.0 25.0 0.00 0.00 0.00 57 1006.5
20260503191034 62 213 13.0 28.0 0.00 0.00 0.00 55 1006.6
20260503190537 63 223 13.0 28.0 0.00 0.00 0.00 54 1006.6
20260503190058 63 203 7.0 23.0 0.00 0.00 0.00 57 1006.5
20260503185538 63 211 9.0 23.0 0.00 0.00 0.00 54 1006.7
20260503185038 63 227 11.0 25.0 0.00 0.00 0.00 56 1006.6
20260503184542 63 238 14.0 25.0 0.00 0.00 0.00 54 1006.6
20260503184038 64 188 9.0 19.0 0.00 0.00 0.00 56 1006.5
20260503183540 64 200 6.0 17.0 0.00 0.00 0.00 59 1006.7
20260503183043 63 151 7.0 26.0 0.00 0.00 0.00 55 1006.8
20260503182536 62 267 8.0 26.0 0.00 0.00 0.00 57 1006.8
20260503182038 62 230 15.0 26.0 0.00 0.00 0.00 53 1006.9
20260503181558 62 296 9.0 20.0 0.00 0.00 0.00 56 1006.9
20260503181034 62 202 11.0 23.0 0.00 0.00 0.00 55 1006.9
20260503180536 62 207 10.0 23.0 0.00 0.00 0.00 61 1007.0
20260503180054 61 215 9.0 24.0 0.00 0.00 0.00 59 1007.1
20260503175535 61 211 13.0 24.0 0.00 0.00 0.00 58 1007.2
20260503175035 60 192 11.0 23.0 0.00 0.00 0.00 61 1007.3
20260503174550 60 207 11.0 23.0 0.00 0.00 0.00 64 1007.3
20260503174034 59 232 11.0 22.0 0.00 0.00 0.00 65 1007.3
20260503173535 59 209 10.0 19.0 0.00 0.00 0.00 67 1007.5
20260503173044 59 202 9.0 19.0 0.00 0.00 0.00 68 1007.7
20260503172535 58 195 7.0 20.0 0.00 0.00 0.00 67 1007.7
20260503172033 58 200 9.0 25.0 0.00 0.00 0.00 68 1007.8
20260503171545 57 199 12.0 25.0 0.00 0.00 0.00 65 1008.1
20260503171035 57 194 9.0 25.0 0.00 0.00 0.00 67 1008.1
20260503170533 56 214 10.0 19.0 0.00 0.00 0.00 67 1008.1
20260503150533 54 242 10.0 21.0 0.00 0.00 0.00 69 1009.8
20260503131034 52 198 8.0 21.0 0.00 0.00 0.00 65 1010.7
20260503130534 51 273 7.0 19.0 0.00 0.00 0.00 67 1010.8
20260503110536 48 236 5.0 16.0 0.00 0.00 0.00 65 1010.4